Location: *
(31.2983°S, 151.4094°E)
Time: 05:35:49
(UTC+00:00)

Cosmos 1354 Rocket - Pass Details

Date: 25 August 2019
Orbit: 764 x 783 km, 74.0° (Epoch: 19 September)

Event Time Altitude Azimuth Distance (km) Brightness Sun altitude
Rises 19:16:51 0° 348° (NNW) 3,224 7.2 -13.9°
Reaches altitude 10° 19:19:13 10° 349° (N) 2,303 6.4 -13.4°
Maximum altitude 19:24:27 80° 76° (ENE) 787 4.1 -12.3°
Drops below altitude 10° 19:29:44 10° 161° (SSE) 2,326 6.7 -11.2°
Sets 19:32:07 0° 162° (SSE) 3,259 7.4 -10.7°
